Skip Page Navigation
NASA JPL Caltech
NASA Logo - Jet Propulsion Laboratory + View the NASA Portal
+ Center for Near-Earth Object Studies
JPL Home Earth Solar System Stars & Galaxies Technology
JPL Solar System Dynamics
BODIES ORBITS EPHEMERIDES TOOLS PHYSICAL DATA DISCOVERY FAQ SITE MAP
IMPORTANT: The SSD Announcement email list is now available. Major changes are coming in the near future, including possible hostname and/or URL changes. To be notified of such changes, subscribe to this email list.

Please visit this page for more details.


JPL Small-Body Database Browser
Search: [ help ]  
160 Una
Classification: Main-belt Asteroid          SPK-ID: 2000160
Ephemeris | Orbit Diagram | Orbital Elements | Mission Design | Physical Parameters | Discovery Circumstances ]

[ hide orbit diagram ]

For accurate long-term ephemerides, please instead use our Horizons system.This orbit viewer was implemented using two-body methods, and hence should not be used for determining accurate long-term trajectories (over several years or decades) or planetary encounter circumstances.


[ revert to old Java-based viewer ]

Orbital Elements at Epoch 2458600.5 (2019-Apr-27.0) TDB
Reference: JPL 33 (heliocentric ecliptic J2000)
 Element Value Uncertainty (1-sigma)   Units 
e .06697517257105223 3.6635e-08  
a 2.727733590277533 8.8128e-09 au
q 2.54504316234084 1.0124e-07 au
i 3.823882058754434 4.5316e-06 deg
node 8.599983721763802 5.6812e-05 deg
peri 52.36198398491521 6.5638e-05 deg
M 3.820287535867407 3.2701e-05 deg
tp 2458583.037962950986
(2019-Apr-09.53796295)
0.00014947 TDB
period 1645.513139685072
4.51
7.9745e-06
2.183e-08
d
yr
n .2187767398009954 1.0602e-09 deg/d
Q 2.910424018214227 9.403e-09 au
  Orbit Determination Parameters
   # obs. used (total)      2801  
   data-arc span      44530 days (121.92 yr)  
   first obs. used      1897-12-27  
   last obs. used      2019-11-28  
   planetary ephem.      DE431  
   SB-pert. ephem.      SB431-N16  
   condition code      0  
   norm. resid. RMS      .47334  
   source      ORB  
   producer      Otto Matic  
   solution date      2019-Dec-03 20:02:35  

Additional Information
 Earth MOID = 1.55919 au 
 Jupiter MOID = 2.29841 au 
 T_jup = 3.349 
[ show covariance matrix ]

Ephemeris | Orbit Diagram | Orbital Elements | Mission Design | Physical Parameters | Discovery Circumstances ]

Physical Parameter Table
Parameter Symbol Value Units Sigma Reference Notes
absolute magnitude H 9.08   n/a IRAS-A-FPA-3-RDR-IMPS-V6.0 IRAS observations used: 5
diameter diameter 81.24 km 2.1 IRAS-A-FPA-3-RDR-IMPS-V6.0 IRAS observations used: 5
rotation period rot_per 11.033 h n/a LCDB (Rev. 2019-January); Warner et al., 2009 Published Reference List:
[Marciniak, A.; Michalowski, T.; Hirsch, R.; Polinska, K.; et al. (2009) Astron. Astrophys. 498, 313-320.]
[Behrend, R. (2011) Observatoire de Geneve web site, http://obswww.unige.ch/~behrend/page_cou.html]
geometric albedo albedo 0.0625   0.003 IRAS-A-FPA-3-RDR-IMPS-V6.0 IRAS observations used: 5
B-V BV 0.718   0.022 EAR-A-5-DDR-UBV-MEAN-VALUES-V1.2 #obs=2; phase (min.=5.04, mean=5.97, max.=6.91) deg.
U-B UB 0.363   0.040 EAR-A-5-DDR-UBV-MEAN-VALUES-V1.2 #obs=2; phase (min.=5.04, mean=5.97, max.=6.91) deg.
Tholen spectral type spec_T CX   n/a EAR-A-5-DDR-TAXONOMY-V4.0 used 2 color indices
SMASSII spectral type spec_B C   n/a EAR-A-5-DDR-TAXONOMY-V4.0 based on a high-resolution spectrum by Xu et al. (1995) or Bus and Binzel (2002)

160 Una          Discovered 1876-Feb-20 by Peters, C. H. F. at Clinton
Reference: DISCOVERY.DBLast Updated: 2003-08-29
Ephemeris | Orbit Diagram | Orbital Elements | Mission Design | Physical Parameters | Discovery Circumstances ]
ABOUT SSD CREDITS/AWARDS PRIVACY/COPYRIGHT GLOSSARY LINKS
FirstGov 2019-Dec-14 00:35 UT
(server date/time)  
NASA Home Page
Site Manager:   Ryan S. Park
Webmaster  Alan B. Chamberlin